* Astronomy

Members Login
Post Info TOPIC: Asteroid 2010 PL9


L

Posts: 131433
Date:
Asteroid 2010 PL9
Permalink  
 


Orbital elements:
2010 PL9 Earth MOID = 0.3531 AU
Epoch 2010 July 23.0 TT = JDT 2455400.5 MPC
M 341.83941 (2000.0) P Q
n 0.29110101 Peri. 49.04267 +0.96029861 +0.06334278
a 2.2547942 Node 305.56572 -0.20968385 +0.80624917
e 0.4279071 Incl. 19.51143 +0.18400888 +0.58817511
P 3.39 H 20.1 G 0.15 U 9

MPEC 2010 - P30


__________________
Page 1 of 1  sorted by
 
Quick Reply

Please log in to post quick replies.



Create your own FREE Forum
Report Abuse
Powered by ActiveBoard